,,,PA_Meas_PMT16A,,PR_Meas_QMR101_102,,RH_Meas_QMH101,,SR_Meas_QMS101,,TA_Meas_QMH101,,GenWind,,GenWind,
date,time,status,PA,status,PR,status,RH,status,SR,status,TA,status,DirAvg,status,SpdAvg,
2010-07-22, 00:00:05,VALID,1009.91,VALID,0,VALID,101.384,VALID,0,VALID,25.1557,VALID,47,VALID,0.383594,
2010-07-22, 00:01:05,VALID,1009.94,VALID,0,VALID,101.369,VALID,0,VALID,25.1343,VALID,78,VALID,0.525781,
2010-07-22, 00:02:05,VALID,1009.96,VALID,0,VALID,101.255,VALID,0,VALID,25.1343,VALID,94,VALID,0.3125,
2010-07-22, 00:03:05,VALID,1009.98,VALID,0,VALID,101.308,VALID,0,VALID,25.1148,VALID,94,VALID,0.484766,
2010-07-22, 00:04:05,VALID,1010.02,VALID,0,VALID,101.369,VALID,0,VALID,25.1167,VALID,114,VALID,1.08828,
2010-07-22, 00:05:05,VALID,1010.03,VALID,0,VALID,101.346,VALID,0,VALID,25.1167,VALID,123,VALID,0.831641,
2010-07-22, 00:06:05,VALID,1010.03,VALID,0,VALID,101.354,VALID,0,VALID,25.1381,VALID,133,VALID,0.555859,
2010-07-22, 00:07:05,VALID,1010.04,VALID,0,VALID,101.415,VALID,0,VALID,25.1381,VALID,96,VALID,0.782812,
2010-07-22, 00:08:05,VALID,1010.03,VALID,0,VALID,101.392,VALID,0,VALID,25.1362,VALID,129,VALID,0.954687,
2010-07-22, 00:09:05,VALID,1010.01,VALID,0,VALID,101.323,VALID,0,VALID,25.1362,VALID,112,VALID,0.548047,
2010-07-22, 00:10:05,VALID,1009.98,VALID,0,VALID,101.285,VALID,0,VALID,25.1362,VALID,78,VALID,0.637109,
2010-07-22, 00:11:05,VALID,1009.97,VALID,0,VALID,101.369,VALID,0,VALID,25.1557,VALID,105,VALID,0.765234,
2010-07-22, 00:12:05,VALID,1009.96,VALID,0,VALID,101.362,VALID,0,VALID,25.1771,VALID,85,VALID,0.849609,
2010-07-22, 00:13:05,VALID,1009.91,VALID,0,VALID,101.285,VALID,0,VALID,25.1362,VALID,79,VALID,0.909766,
2010-07-22, 00:14:05,VALID,1009.9,VALID,0,VALID,101.217,VALID,0,VALID,25.1167,VALID,98,VALID,1.30625,
2010-07-22, 00:15:05,VALID,1009.9,VALID,0,VALID,101.117,VALID,0,VALID,25.0973,VALID,103,VALID,1.13828,
2010-07-22, 00:16:05,VALID,1009.91,VALID,0,VALID,101.171,VALID,0,VALID,25.0973,VALID,132,VALID,1.49531,
2010-07-22, 00:17:05,VALID,1009.87,VALID,0,VALID,101.148,VALID,0,VALID,25.0973,VALID,134,VALID,0.810156,
2010-07-22, 00:18:05,VALID,1009.82,VALID,0,VALID,101.331,VALID,0,VALID,25.1362,VALID,118,VALID,0.45,
2010-07-22, 00:19:05,VALID,1009.83,VALID,0,VALID,101.468,VALID,0.105969,VALID,25.1148,VALID,115,VALID,0.442969,
2010-07-22, 00:20:05,VALID,1009.8,VALID,0,VALID,101.529,VALID,0.105969,VALID,25.1148,VALID,115,VALID,0.749609,
2010-07-22, 00:21:05,VALID,1009.78,VALID,0,VALID,101.415,VALID,0.105969,VALID,25.0759,VALID,118,VALID,0.798437,
2010-07-22, 00:22:05,VALID,1009.78,VALID,0,VALID,101.354,VALID,0.105969,VALID,25.0759,VALID,123,VALID,1.14727,
2010-07-22, 00:23:05,VALID,1009.8,VALID,0,VALID,101.415,VALID,0.105969,VALID,25.0759,VALID,127,VALID,1.26563,
2010-07-22, 00:24:05,VALID,1009.81,VALID,0,VALID,101.407,VALID,0.105969,VALID,25.0759,VALID,104,VALID,1.66797,
2010-07-22, 00:25:05,VALID,1009.81,VALID,0,VALID,101.384,VALID,0.105969,VALID,25.0564,VALID,108,VALID,1.2707,
2010-07-22, 00:26:05,VALID,1009.83,VALID,0,VALID,101.415,VALID,0.105969,VALID,25.0564,VALID,112,VALID,1.5,
2010-07-22, 00:27:05,VALID,1009.81,VALID,0,VALID,101.369,VALID,0.105969,VALID,25.0564,VALID,113,VALID,1.41523,
2010-07-22, 00:28:05,VALID,1009.87,VALID,0,VALID,101.445,VALID,0.105969,VALID,25.0564,VALID,118,VALID,0.891016,
2010-07-22, 00:29:05,VALID,1009.88,VALID,0,VALID,101.423,VALID,0.105969,VALID,25.0564,VALID,102,VALID,0.810156,
2010-07-22, 00:30:05,VALID,1009.9,VALID,0,VALID,101.43,VALID,0.105969,VALID,25.0778,VALID,129,VALID,0.847266,
2010-07-22, 00:31:05,VALID,1009.91,VALID,0,VALID,101.331,VALID,0,VALID,25.0174,VALID,114,VALID,1.42539,
2010-07-22, 00:32:05,VALID,1009.93,VALID,0,VALID,101.369,VALID,0.105969,VALID,25.0174,VALID,158,VALID,0.896875,
2010-07-22, 00:33:05,VALID,1009.92,VALID,0,VALID,101.369,VALID,0.105969,VALID,24.9979,VALID,143,VALID,0.354688,
2010-07-22, 00:34:05,VALID,1009.9,VALID,0,VALID,101.484,VALID,0,VALID,24.9784,VALID,125,VALID,0.528906,
2010-07-22, 00:35:05,VALID,1009.92,VALID,0,VALID,101.606,VALID,0,VALID,24.9784,VALID,126,VALID,0.7875,
2010-07-22, 00:36:05,VALID,1009.95,VALID,0,VALID,101.575,VALID,0,VALID,24.9784,VALID,90,VALID,1.13867,
2010-07-22, 00:37:05,VALID,1009.95,VALID,0,VALID,101.529,VALID,0,VALID,24.9589,VALID,87,VALID,0.971094,
2010-07-22, 00:38:05,VALID,1009.98,VALID,0,VALID,101.567,VALID,0.105969,VALID,24.9784,VALID,143,VALID,1.40352,
2010-07-22, 00:39:05,VALID,1010.06,VALID,0,VALID,101.659,VALID,0.105969,VALID,24.9589,VALID,133,VALID,2.40273,
2010-07-22, 00:40:05,VALID,1010.03,VALID,0,VALID,101.72,VALID,0,VALID,24.9589,VALID,115,VALID,0.968359,
2010-07-22, 00:41:05,VALID,1010.05,VALID,0,VALID,101.773,VALID,0.105969,VALID,24.9608,VALID,138,VALID,1.31055,
2010-07-22, 00:42:05,VALID,1010.03,VALID,0,VALID,101.804,VALID,0,VALID,24.9608,VALID,123,VALID,1.46445,
2010-07-22, 00:43:05,VALID,1009.98,VALID,0,VALID,101.789,VALID,0.105969,VALID,24.9394,VALID,87,VALID,1.09805,
2010-07-22, 00:44:05,VALID,1009.99,VALID,0,VALID,101.728,VALID,0.105969,VALID,24.9394,VALID,96,VALID,1.78164,
2010-07-22, 00:45:05,VALID,1009.99,VALID,0,VALID,101.697,VALID,0,VALID,24.9803,VALID,112,VALID,1.18242,
2010-07-22, 00:46:05,VALID,1010.03,VALID,0,VALID,101.621,VALID,0.105969,VALID,24.9784,VALID,98,VALID,1.86055,
2010-07-22, 00:47:05,VALID,1010,VALID,0,VALID,101.552,VALID,0.105969,VALID,24.9784,VALID,110,VALID,1.46914,
2010-07-22, 00:48:05,VALID,1009.99,VALID,0,VALID,101.552,VALID,0.105969,VALID,24.9589,VALID,93,VALID,1.21055,
2010-07-22, 00:49:05,VALID,1010,VALID,0,VALID,101.529,VALID,0.105969,VALID,24.9589,VALID,104,VALID,0.986719,
2010-07-22, 00:50:05,VALID,1009.98,VALID,0,VALID,101.56,VALID,0.105969,VALID,24.9589,VALID,115,VALID,1.9793,
2010-07-22, 00:51:05,VALID,1009.97,VALID,0,VALID,101.522,VALID,0.105969,VALID,24.9589,VALID,121,VALID,1.57109,
2010-07-22, 00:52:05,VALID,1009.88,VALID,0,VALID,101.499,VALID,0.105969,VALID,24.9589,VALID,95,VALID,1.15313,
2010-07-22, 00:53:05,VALID,1009.86,VALID,0,VALID,101.453,VALID,0,VALID,24.9589,VALID,96,VALID,1.2,
2010-07-22, 00:54:05,VALID,1009.82,VALID,0,VALID,101.537,VALID,0.105969,VALID,24.9784,VALID,83,VALID,1.08086,
2010-07-22, 00:55:05,VALID,1009.85,VALID,0,VALID,101.537,VALID,0.105969,VALID,24.9784,VALID,92,VALID,2.10859,
2010-07-22, 00:56:05,VALID,1009.82,VALID,0,VALID,101.522,VALID,0.105969,VALID,24.9784,VALID,90,VALID,1.49258,
2010-07-22, 00:57:05,VALID,1009.78,VALID,0,VALID,101.499,VALID,0.105969,VALID,24.9784,VALID,88,VALID,1.39336,
2010-07-22, 00:58:05,VALID,1009.76,VALID,0,VALID,101.476,VALID,0.105969,VALID,24.9784,VALID,93,VALID,1.22734,
2010-07-22, 00:59:05,VALID,1009.7,VALID,0,VALID,101.438,VALID,0,VALID,24.9998,VALID,90,VALID,1.43555,
2010-07-22, 01:00:05,VALID,1009.68,VALID,0,VALID,101.415,VALID,0.105969,VALID,24.9784,VALID,114,VALID,1.07422,
2010-07-22, 01:01:05,VALID,1009.65,VALID,0,VALID,101.148,VALID,0.105969,VALID,24.9589,VALID,110,VALID,1.78047,
2010-07-22, 01:02:05,VALID,1009.63,VALID,0,VALID,100.919,VALID,0.105969,VALID,24.9998,VALID,117,VALID,1.48633,
2010-07-22, 01:03:05,VALID,1009.61,VALID,0,VALID,100.675,VALID,0,VALID,24.9979,VALID,103,VALID,1.54844,
2010-07-22, 01:04:05,VALID,1009.6,VALID,0,VALID,100.309,VALID,0,VALID,25.0193,VALID,104,VALID,1.41992,
2010-07-22, 01:05:05,VALID,1009.61,VALID,0,VALID,100.103,VALID,0.105969,VALID,25.0388,VALID,120,VALID,1.56289,
2010-07-22, 01:06:05,VALID,1009.59,VALID,0,VALID,99.9202,VALID,0,VALID,24.9979,VALID,125,VALID,1.86523,
2010-07-22, 01:07:05,VALID,1009.64,VALID,0,VALID,99.7982,VALID,0.105969,VALID,24.9784,VALID,104,VALID,1.36563,
2010-07-22, 01:08:05,VALID,1009.6,VALID,0,VALID,99.5618,VALID,0.105969,VALID,24.9784,VALID,128,VALID,1.46719,
2010-07-22, 01:09:05,VALID,1009.64,VALID,0,VALID,99.6533,VALID,0,VALID,24.9998,VALID,128,VALID,0.779688,
2010-07-22, 01:10:05,VALID,1009.65,VALID,0,VALID,99.3407,VALID,0,VALID,24.9803,VALID,127,VALID,1.54219,
2010-07-22, 01:11:05,VALID,1009.63,VALID,0,VALID,99.3712,VALID,0,VALID,24.9784,VALID,87,VALID,1.78125,
2010-07-22, 01:12:05,VALID,1009.67,VALID,0,VALID,99.0204,VALID,0.105969,VALID,24.9394,VALID,110,VALID,1.2707,
2010-07-22, 01:13:05,VALID,1009.64,VALID,0,VALID,98.8679,VALID,0.105969,VALID,24.9589,VALID,138,VALID,1.06094,
2010-07-22, 01:14:05,VALID,1009.64,VALID,0,VALID,98.8374,VALID,0,VALID,24.9394,VALID,135,VALID,0.476953,
2010-07-22, 01:15:05,VALID,1009.65,VALID,0,VALID,98.3493,VALID,0.105969,VALID,24.9394,VALID,130,VALID,0.678125,
2010-07-22, 01:16:05,VALID,1009.68,VALID,0,VALID,98.0672,VALID,0,VALID,24.9608,VALID,69,VALID,0.436328,
2010-07-22, 01:17:05,VALID,1009.69,VALID,0,VALID,95.3219,VALID,0.105969,VALID,24.9394,VALID,111,VALID,0.565625,
2010-07-22, 01:18:05,VALID,1009.69,VALID,0,VALID,95.0398,VALID,0.105969,VALID,24.9394,VALID,100,VALID,1.44922,
2010-07-22, 01:19:05,VALID,1009.69,VALID,0,VALID,94.6966,VALID,0.105969,VALID,24.9394,VALID,111,VALID,0.661719,
2010-07-22, 01:20:05,VALID,1009.69,VALID,0,VALID,95.2838,VALID,0.105969,VALID,24.9608,VALID,82,VALID,0.258203,
2010-07-22, 01:21:05,VALID,1009.71,VALID,0,VALID,95.5431,VALID,0,VALID,24.9394,VALID,94,VALID,0.652344,
2010-07-22, 01:22:05,VALID,1009.71,VALID,0,VALID,95.5126,VALID,0.105969,VALID,24.9199,VALID,109,VALID,0.507813,
2010-07-22, 01:23:05,VALID,1009.73,VALID,0,VALID,95.7261,VALID,0.105969,VALID,24.9218,VALID,77,VALID,0.748047,
2010-07-22, 01:24:05,VALID,1009.71,VALID,0,VALID,94.8034,VALID,0.105969,VALID,24.9218,VALID,74,VALID,0.697266,
2010-07-22, 01:25:05,VALID,1009.71,VALID,0,VALID,96.5192,VALID,0.105969,VALID,24.9004,VALID,122,VALID,0.172266,
2010-07-22, 01:26:05,VALID,1009.7,VALID,0,VALID,97.3427,VALID,0.105969,VALID,24.9004,VALID,39,VALID,0.691797,
2010-07-22, 01:27:05,VALID,1009.71,VALID,0,VALID,96.931,VALID,0,VALID,24.8828,VALID,42,VALID,0.451172,
2010-07-22, 01:28:05,VALID,1009.71,VALID,0,VALID,96.8623,VALID,0.105969,VALID,24.8615,VALID,42,VALID,0.308203,
2010-07-22, 01:29:05,VALID,1009.71,VALID,0,VALID,97.5563,VALID,0,VALID,24.8633,VALID,42,VALID,0.140234,
2010-07-22, 01:30:05,VALID,1009.69,VALID,0,VALID,98.1511,VALID,0.105969,VALID,24.842,VALID,47,VALID,0.702344,
2010-07-22, 01:31:05,VALID,1009.7,VALID,0,VALID,98.3493,VALID,0.105969,VALID,24.803,VALID,42,VALID,0.624219,
2010-07-22, 01:32:05,VALID,1009.65,VALID,0,VALID,98.2731,VALID,0.105969,VALID,24.7835,VALID,11,VALID,0.611328,
2010-07-22, 01:33:05,VALID,1009.64,VALID,0,VALID,98.3341,VALID,0,VALID,24.7445,VALID,25,VALID,0.258203,
2010-07-22, 01:34:05,VALID,1009.64,VALID,0,VALID,98.5629,VALID,0,VALID,24.7464,VALID,25,VALID,0,
2010-07-22, 01:35:05,VALID,1009.63,VALID,0,VALID,98.6849,VALID,0,VALID,24.7269,VALID,25,VALID,0,
2010-07-22, 01:36:05,VALID,1009.61,VALID,0,VALID,98.845,VALID,0,VALID,24.7074,VALID,18,VALID,0.0351563,
2010-07-22, 01:37:05,VALID,1009.63,VALID,0,VALID,99.1424,VALID,0,VALID,24.7074,VALID,352,VALID,0.436328,
2010-07-22, 01:38:05,VALID,1009.64,VALID,0,VALID,99.2568,VALID,0,VALID,24.6879,VALID,352,VALID,0.192188,
2010-07-22, 01:39:05,VALID,1009.63,VALID,0,VALID,99.3636,VALID,0,VALID,24.6684,VALID,352,VALID,0.308594,
2010-07-22, 01:40:05,VALID,1009.68,VALID,0,VALID,99.5085,VALID,0,VALID,24.6684,VALID,352,VALID,0,
2010-07-22, 01:41:05,VALID,1009.66,VALID,0,VALID,99.5923,VALID,0,VALID,24.6489,VALID,352,VALID,0,
2010-07-22, 01:42:05,VALID,1009.66,VALID,0,VALID,99.6762,VALID,0,VALID,24.6508,VALID,352,VALID,0.0367187,
2010-07-22, 01:43:05,VALID,1009.69,VALID,0,VALID,99.844,VALID,0,VALID,24.6508,VALID,352,VALID,0,
2010-07-22, 01:44:05,VALID,1009.71,VALID,0,VALID,99.9889,VALID,0,VALID,24.6099,VALID,352,VALID,0,
2010-07-22, 01:45:05,VALID,1009.7,VALID,0,VALID,100.164,VALID,0,VALID,24.6099,VALID,352,VALID,0,
2010-07-22, 01:46:05,VALID,1009.74,VALID,0,VALID,100.431,VALID,0,VALID,24.5905,VALID,352,VALID,0,
2010-07-22, 01:47:05,VALID,1009.77,VALID,0,VALID,100.614,VALID,0,VALID,24.5905,VALID,352,VALID,0,
2010-07-22, 01:48:05,VALID,1009.79,VALID,0,VALID,100.698,VALID,0,VALID,24.5905,VALID,352,VALID,0,
2010-07-22, 01:49:05,VALID,1009.81,VALID,0,VALID,100.744,VALID,0,VALID,24.5691,VALID,352,VALID,0,
2010-07-22, 01:50:05,VALID,1009.76,VALID,0,VALID,100.79,VALID,0.105969,VALID,24.5496,VALID,354,VALID,0.179297,
2010-07-22, 01:51:05,VALID,1009.77,VALID,0,VALID,100.82,VALID,0.105969,VALID,24.571,VALID,354,VALID,0.167187,
2010-07-22, 01:52:05,VALID,1009.76,VALID,0,VALID,100.942,VALID,0.105969,VALID,24.5496,VALID,328,VALID,0.313281,
2010-07-22, 01:53:05,VALID,1009.73,VALID,0,VALID,101.087,VALID,0.105969,VALID,24.5496,VALID,328,VALID,0,
2010-07-22, 01:54:05,VALID,1009.75,VALID,0,VALID,101.247,VALID,0,VALID,24.5515,VALID,328,VALID,0,
2010-07-22, 01:55:05,VALID,1009.79,VALID,0,VALID,101.369,VALID,0.105969,VALID,24.5301,VALID,328,VALID,0,
2010-07-22, 01:56:05,VALID,1009.76,VALID,0,VALID,101.438,VALID,0.105969,VALID,24.5515,VALID,328,VALID,0.0957031,
2010-07-22, 01:57:05,VALID,1009.79,VALID,0,VALID,101.583,VALID,0,VALID,24.532,VALID,328,VALID,0.1,
2010-07-22, 01:58:05,VALID,1009.8,VALID,0,VALID,101.75,VALID,0.105969,VALID,24.5515,VALID,328,VALID,0,
2010-07-22, 01:59:05,VALID,1009.83,VALID,0,VALID,101.827,VALID,0.105969,VALID,24.5106,VALID,328,VALID,0,
2010-07-22, 02:00:05,VALID,1009.84,VALID,0,VALID,101.933,VALID,0.105969,VALID,24.5106,VALID,18,VALID,0.195703,
2010-07-22, 02:01:05,VALID,1009.84,VALID,0,VALID,102.04,VALID,0.105969,VALID,24.4911,VALID,18,VALID,0,
2010-07-22, 02:02:05,VALID,1009.85,VALID,0,VALID,102.155,VALID,0.105969,VALID,24.5106,VALID,354,VALID,0.0226563,
2010-07-22, 02:03:05,VALID,1009.85,VALID,0,VALID,102.261,VALID,0.105969,VALID,24.5106,VALID,298,VALID,0.786328,
2010-07-22, 02:04:05,VALID,1009.86,VALID,0,VALID,102.322,VALID,0,VALID,24.5515,VALID,315,VALID,0.0929687,
2010-07-22, 02:05:05,VALID,1009.87,VALID,0,VALID,102.368,VALID,0,VALID,24.5301,VALID,350,VALID,0.107813,
2010-07-22, 02:06:05,VALID,1009.85,VALID,0,VALID,102.414,VALID,0.105969,VALID,24.5301,VALID,350,VALID,0,
2010-07-22, 02:07:05,VALID,1009.87,VALID,0,VALID,102.46,VALID,0,VALID,24.5301,VALID,350,VALID,0.00351562,
2010-07-22, 02:08:05,VALID,1009.89,VALID,0,VALID,102.498,VALID,0.105969,VALID,24.5496,VALID,347,VALID,0.0546875,
2010-07-22, 02:09:05,VALID,1009.89,VALID,0,VALID,102.505,VALID,0.105969,VALID,24.5496,VALID,287,VALID,0.402734,
2010-07-22, 02:10:05,VALID,1009.85,VALID,0,VALID,102.521,VALID,0.105969,VALID,24.5496,VALID,286,VALID,0.0726563,
2010-07-22, 02:11:05,VALID,1009.87,VALID,0,VALID,102.544,VALID,0,VALID,24.5496,VALID,286,VALID,0.00117188,
2010-07-22, 02:12:05,VALID,1009.86,VALID,0,VALID,102.551,VALID,0,VALID,24.571,VALID,277,VALID,0.00585938,
2010-07-22, 02:13:05,VALID,1009.88,VALID,0,VALID,102.536,VALID,0,VALID,24.571,VALID,277,VALID,0,
2010-07-22, 02:14:05,VALID,1009.88,VALID,0,VALID,102.559,VALID,0,VALID,24.5905,VALID,281,VALID,0.103516,
2010-07-22, 02:15:05,VALID,1009.89,VALID,0,VALID,102.559,VALID,0,VALID,24.5496,VALID,285,VALID,0.0324219,
2010-07-22, 02:16:05,VALID,1009.89,VALID,0,VALID,102.559,VALID,0.105969,VALID,24.5496,VALID,275,VALID,0,
2010-07-22, 02:17:05,VALID,1009.92,VALID,0,VALID,102.574,VALID,0.105969,VALID,24.5496,VALID,293,VALID,0.0925781,
2010-07-22, 02:18:05,VALID,1009.97,VALID,0,VALID,102.589,VALID,0.105969,VALID,24.5691,VALID,343,VALID,0.490234,
2010-07-22, 02:19:05,VALID,1009.92,VALID,0,VALID,102.597,VALID,0,VALID,24.5728,VALID,332,VALID,0.535547,
2010-07-22, 02:20:05,VALID,1009.95,VALID,0,VALID,102.627,VALID,0,VALID,24.571,VALID,89,VALID,0.605469,
2010-07-22, 02:21:05,VALID,1009.94,VALID,0,VALID,102.658,VALID,0,VALID,24.5515,VALID,34,VALID,0.583594,
2010-07-22, 02:22:05,VALID,1009.94,VALID,0,VALID,102.635,VALID,0,VALID,24.5515,VALID,40,VALID,0.318359,
2010-07-22, 02:23:05,VALID,1009.93,VALID,0,VALID,102.643,VALID,0,VALID,24.5728,VALID,54,VALID,0.428516,
2010-07-22, 02:24:05,VALID,1009.9,VALID,0,VALID,102.65,VALID,0,VALID,24.5515,VALID,345,VALID,0.908203,
2010-07-22, 02:25:05,VALID,1009.87,VALID,0,VALID,102.65,VALID,0,VALID,24.5728,VALID,287,VALID,0.248047,
2010-07-22, 02:26:05,VALID,1009.88,VALID,0,VALID,102.673,VALID,0,VALID,24.5728,VALID,178,VALID,0.213281,
2010-07-22, 02:27:05,VALID,1009.85,VALID,0,VALID,102.673,VALID,0,VALID,24.571,VALID,62,VALID,0.0648438,
2010-07-22, 02:28:05,VALID,1009.81,VALID,0,VALID,102.688,VALID,0,VALID,24.5728,VALID,8,VALID,0.369922,
2010-07-22, 02:29:04,VALID,1009.79,VALID,0,VALID,102.65,VALID,0,VALID,24.571,VALID,9,VALID,0,
2010-07-22, 02:30:04,VALID,1009.77,VALID,0,VALID,102.666,VALID,0,VALID,24.571,VALID,335,VALID,0.113281,
2010-07-22, 02:31:04,VALID,1009.78,VALID,0,VALID,102.65,VALID,0,VALID,24.5728,VALID,337,VALID,0.556641,
2010-07-22, 02:32:04,VALID,1009.75,VALID,0,VALID,102.658,VALID,0,VALID,24.571,VALID,360,VALID,0.247656,
2010-07-22, 02:33:04,VALID,1009.73,VALID,0,VALID,102.666,VALID,0,VALID,24.5728,VALID,63,VALID,0,
2010-07-22, 02:34:04,VALID,1009.72,VALID,0,VALID,102.65,VALID,0,VALID,24.5496,VALID,63,VALID,0,
2010-07-22, 02:35:04,VALID,1009.72,VALID,0,VALID,102.673,VALID,0.105969,VALID,24.5496,VALID,283,VALID,0.364453,
2010-07-22, 02:36:04,VALID,1009.74,VALID,0,VALID,102.673,VALID,0.105969,VALID,24.5496,VALID,45,VALID,0.316016,
2010-07-22, 02:37:04,VALID,1009.71,VALID,0,VALID,102.681,VALID,0.105969,VALID,24.5301,VALID,106,VALID,0.400391,
2010-07-22, 02:38:04,VALID,1009.76,VALID,0,VALID,102.666,VALID,0.105969,VALID,24.5301,VALID,117,VALID,0,
2010-07-22, 02:39:04,VALID,1009.77,VALID,0,VALID,102.681,VALID,0.105969,VALID,24.5301,VALID,117,VALID,0.175781,
2010-07-22, 02:40:04,VALID,1009.79,VALID,0,VALID,102.688,VALID,0.105969,VALID,24.5515,VALID,93,VALID,0.634375,
2010-07-22, 02:41:04,VALID,1009.77,VALID,0,VALID,102.688,VALID,0.105969,VALID,24.5301,VALID,11,VALID,0.3625,
2010-07-22, 02:42:04,VALID,1009.78,VALID,0,VALID,102.711,VALID,0.105969,VALID,24.5301,VALID,318,VALID,0.984375,
2010-07-22, 02:43:04,VALID,1009.82,VALID,0,VALID,102.688,VALID,0,VALID,24.5301,VALID,342,VALID,0.230469,
2010-07-22, 02:44:04,VALID,1009.82,VALID,0,VALID,102.688,VALID,0.105969,VALID,24.5301,VALID,342,VALID,0,
2010-07-22, 02:45:04,VALID,1009.85,VALID,0,VALID,102.704,VALID,0.105969,VALID,24.5496,VALID,97,VALID,0.205078,
2010-07-22, 02:46:04,VALID,1009.86,VALID,0,VALID,102.696,VALID,0.105969,VALID,24.5496,VALID,123,VALID,0.228516,
2010-07-22, 02:47:04,VALID,1009.89,VALID,0,VALID,102.711,VALID,0.105969,VALID,24.5496,VALID,132,VALID,0.49375,
2010-07-22, 02:48:04,VALID,1009.86,VALID,0,VALID,102.719,VALID,0,VALID,24.5691,VALID,120,VALID,0.0640625,
2010-07-22, 02:49:04,VALID,1009.86,VALID,0,VALID,102.719,VALID,0,VALID,24.5515,VALID,169,VALID,1.02305,
2010-07-22, 02:50:04,VALID,1009.82,VALID,0,VALID,102.749,VALID,0,VALID,24.532,VALID,13,VALID,1.18516,
2010-07-22, 02:51:04,VALID,1009.84,VALID,0,VALID,102.711,VALID,0,VALID,24.532,VALID,64,VALID,0.586719,
2010-07-22, 02:52:04,VALID,1009.83,VALID,0,VALID,102.704,VALID,0,VALID,24.5515,VALID,82,VALID,0.135156,
2010-07-22, 02:53:04,VALID,1009.79,VALID,0,VALID,102.719,VALID,0,VALID,24.5533,VALID,70,VALID,1.3457,
2010-07-22, 02:54:04,VALID,1009.75,VALID,0,VALID,102.673,VALID,0,VALID,24.5125,VALID,9,VALID,0.4125,
2010-07-22, 02:55:04,VALID,1009.72,VALID,0,VALID,102.666,VALID,0,VALID,24.5125,VALID,53,VALID,1.06484,
2010-07-22, 02:56:04,VALID,1009.74,VALID,0,VALID,102.635,VALID,0,VALID,24.5125,VALID,341,VALID,1.70313,
2010-07-22, 02:57:04,VALID,1009.68,VALID,0,VALID,102.589,VALID,0,VALID,24.5338,VALID,45,VALID,0.510938,
2010-07-22, 02:58:04,VALID,1009.67,VALID,0,VALID,102.559,VALID,0,VALID,24.5338,VALID,344,VALID,0.489844,
2010-07-22, 02:59:04,VALID,1009.65,VALID,0,VALID,102.528,VALID,0,VALID,24.5125,VALID,257,VALID,0.150391,
2010-07-22, 03:00:04,VALID,1009.67,VALID,0,VALID,102.566,VALID,0,VALID,24.493,VALID,162,VALID,0.252344,
2010-07-22, 03:01:04,VALID,1009.66,VALID,0,VALID,102.505,VALID,0,VALID,24.4949,VALID,295,VALID,1.00664,
2010-07-22, 03:02:04,VALID,1009.65,VALID,0,VALID,102.452,VALID,0,VALID,24.4754,VALID,118,VALID,0.978125,
2010-07-22, 03:03:04,VALID,1009.65,VALID,0,VALID,102.421,VALID,0,VALID,24.454,VALID,79,VALID,1.53906,
2010-07-22, 03:04:04,VALID,1009.64,VALID,0,VALID,102.376,VALID,0.105969,VALID,24.4327,VALID,90,VALID,1.11758,
2010-07-22, 03:05:04,VALID,1009.67,VALID,0,VALID,102.391,VALID,0.105969,VALID,24.4132,VALID,157,VALID,0.355859,
2010-07-22, 03:06:04,VALID,1009.7,VALID,0,VALID,102.391,VALID,0,VALID,24.4132,VALID,73,VALID,0.479297,
2010-07-22, 03:07:04,VALID,1009.71,VALID,0,VALID,102.391,VALID,0,VALID,24.415,VALID,89,VALID,0.976953,
2010-07-22, 03:08:04,VALID,1009.72,VALID,0,VALID,102.376,VALID,0,VALID,24.3956,VALID,116,VALID,0.6,
2010-07-22, 03:09:04,VALID,1009.71,VALID,0,VALID,102.399,VALID,0.105969,VALID,24.3937,VALID,83,VALID,1.46992,
2010-07-22, 03:10:04,VALID,1009.76,VALID,0,VALID,102.437,VALID,0,VALID,24.3956,VALID,98,VALID,1.33164,
2010-07-22, 03:11:04,VALID,1009.73,VALID,0,VALID,102.406,VALID,0.105969,VALID,24.3547,VALID,87,VALID,1.21758,
2010-07-22, 03:12:04,VALID,1009.8,VALID,0,VALID,102.383,VALID,0.105969,VALID,24.3352,VALID,97,VALID,0.982813,
2010-07-22, 03:13:04,VALID,1009.82,VALID,0,VALID,102.353,VALID,0.105969,VALID,24.3158,VALID,26,VALID,1.18008,
2010-07-22, 03:14:04,VALID,1009.83,VALID,0,VALID,102.216,VALID,0,VALID,24.3176,VALID,85,VALID,1.07891,
2010-07-22, 03:15:04,VALID,1009.86,VALID,0,VALID,102.17,VALID,0.105969,VALID,24.2963,VALID,100,VALID,1.00312,
2010-07-22, 03:16:04,VALID,1009.86,VALID,0,VALID,101.949,VALID,0,VALID,24.2768,VALID,79,VALID,0.689844,
2010-07-22, 03:17:04,VALID,1009.85,VALID,0,VALID,101.613,VALID,0.105969,VALID,24.2573,VALID,56,VALID,1.31133,
2010-07-22, 03:18:04,VALID,1009.86,VALID,0,VALID,101.514,VALID,0.105969,VALID,24.2591,VALID,44,VALID,0.607031,
2010-07-22, 03:19:04,VALID,1009.89,VALID,0,VALID,101.575,VALID,0,VALID,24.2591,VALID,261,VALID,0.292969,
2010-07-22, 03:20:04,VALID,1009.9,VALID,0,VALID,101.59,VALID,0,VALID,24.2396,VALID,208,VALID,0.326562,
2010-07-22, 03:21:04,VALID,1009.92,VALID,0,VALID,101.377,VALID,0,VALID,24.2202,VALID,97,VALID,1.51094,
2010-07-22, 03:22:04,VALID,1009.91,VALID,0,VALID,101.384,VALID,0,VALID,24.2202,VALID,78,VALID,0.617578,
2010-07-22, 03:23:04,VALID,1009.93,VALID,0,VALID,101.453,VALID,0,VALID,24.2007,VALID,95,VALID,0.413281,
2010-07-22, 03:24:04,VALID,1009.93,VALID,0,VALID,101.476,VALID,0,VALID,24.1812,VALID,77,VALID,1.28828,
2010-07-22, 03:25:04,VALID,1009.93,VALID,0,VALID,101.453,VALID,0,VALID,24.1812,VALID,31,VALID,0.956641,
2010-07-22, 03:26:04,VALID,1009.91,VALID,0,VALID,101.43,VALID,0,VALID,24.1422,VALID,15,VALID,1.22461,
2010-07-22, 03:27:04,VALID,1009.89,VALID,0,VALID,101.529,VALID,0,VALID,24.1227,VALID,81,VALID,0.307031,
2010-07-22, 03:28:04,VALID,1009.9,VALID,0,VALID,101.621,VALID,0,VALID,24.1032,VALID,17,VALID,1.10742,
2010-07-22, 03:29:04,VALID,1009.84,VALID,0,VALID,101.659,VALID,0,VALID,24.1032,VALID,339,VALID,1.00937,
2010-07-22, 03:30:04,VALID,1009.82,VALID,0,VALID,101.758,VALID,0,VALID,24.1051,VALID,156,VALID,0.224609,
2010-07-22, 03:31:04,VALID,1009.82,VALID,0,VALID,101.842,VALID,0,VALID,24.0837,VALID,357,VALID,0.485156,
2010-07-22, 03:32:04,VALID,1009.79,VALID,0,VALID,101.88,VALID,0,VALID,24.0643,VALID,10,VALID,1.10469,
2010-07-22, 03:33:04,VALID,1009.83,VALID,0,VALID,102.002,VALID,0,VALID,24.0643,VALID,15,VALID,0,
2010-07-22, 03:34:04,VALID,1009.79,VALID,0,VALID,102.101,VALID,0,VALID,24.0466,VALID,352,VALID,0.935156,
2010-07-22, 03:35:04,VALID,1009.81,VALID,0,VALID,102.109,VALID,0,VALID,24.0058,VALID,345,VALID,0.155078,
2010-07-22, 03:36:04,VALID,1009.8,VALID,0,VALID,102.17,VALID,0,VALID,24.0058,VALID,304,VALID,0.0847656,
2010-07-22, 03:37:04,VALID,1009.78,VALID,0,VALID,102.223,VALID,0,VALID,24.0076,VALID,305,VALID,0,
2010-07-22, 03:38:04,VALID,1009.8,VALID,0,VALID,102.322,VALID,0,VALID,23.9863,VALID,24,VALID,0.611328,
2010-07-22, 03:39:04,VALID,1009.8,VALID,0,VALID,102.345,VALID,0,VALID,23.9881,VALID,77,VALID,0.455859,
2010-07-22, 03:40:04,VALID,1009.8,VALID,0,VALID,102.368,VALID,0,VALID,23.9686,VALID,83,VALID,0.449609,
2010-07-22, 03:41:04,VALID,1009.8,VALID,0,VALID,102.414,VALID,0,VALID,23.9473,VALID,85,VALID,0.331641,